Weather History for KACV - October, 2012

Change the Weather History Date:

Friday, October 5, 2012

  Actual Average (KEKA) Record (KEKA)
Temperature  
Mean Temperature 60 °F 55 °F  
Max Temperature 70 °F 63 °F 84 °F (1987)
Min Temperature 53 °F 48 °F 38 °F (1916)
Degree Days  
Heating Degree Days 6 10  
Month to date heating degree days 48  
Since 1 July heating degree days 713  
Cooling Degree Days 0 0  
Month to date cooling degree days 0  
Year to date cooling degree days 0  
Growing Degree Days 10 (Base 50)    
Moisture  
Dew Point 52 °F    
Average Humidity 83    
Maximum Humidity 100    
Minimum Humidity 52    
Precipitation  
Precipitation 0.00 in 0.03 in 0.92 in (1923)
Month to date precipitation 0.16  
Year to date precipitation 24.52  
Since 1 July precipitation 1.24  
Snow  
Snow 0.00 in 0.00 in 0.00 in (2002)
Month to date snowfall 0.0  
Since 1 July snowfall 0.0  
Since 1 September snowfall 0.0  
Snow Depth -    
Sea Level Pressure  
Sea Level Pressure 30.13 in    
Wind  
Wind Speed 3 mph (South)    
Max Wind Speed 12 mph    
Max Gust Speed -    
Visibility 10 miles    
Events      
T = Trace of Precipitation, MM = Missing Value Source: NWS Daily Summary

Daily Weather History Graph

Daily Weather History Graph

Search for Another Location

Airport or City:

Trip Planner

Search our weather history database for the weather conditions in past years. The results will help you decide how hot, cold, wet, or windy it might be!

Date:

Astronomy

Oct. 05, 2012 Rise Set
Actual Time 7:17 AM PDT 6:50 PM PDT
Civil Twilight 6:50 AM PDT 7:18 PM PDT
Nautical Twilight 6:18 AM PDT 7:49 PM PDT
Astronomical Twilight 5:46 AM PDT 8:21 PM PDT
Moon 10:16 PM PDT (10/5) 12:32 PM PDT (10/5)
Length of Visible Light 12h 27m
Length of Day
11h 32m
Waning Gibbous, 73% of the Moon is Illuminated
Oct 5
Waning Gibbous
Oct 8
Last Quarter
Oct 15
New
Oct 21
First Quarter
Oct 29
Full

Hourly Weather History & Observations

Time (PDT) Temp. Dew Point Humidity Pressure Visibility Wind Dir Wind Speed Gust Speed Precip Events Conditions
12:53 AM 53.1 °F 52.0 °F 96% 30.16 in 5.0 mi Calm Calm - N/A   Overcast
1:06 AM 53.6 °F 51.8 °F 94% 30.14 in 6.0 mi Calm Calm - N/A   Overcast
1:33 AM 53.6 °F 53.6 °F 100% 30.14 in 5.0 mi Calm Calm - N/A   Overcast
1:53 AM 53.1 °F 52.0 °F 96% 30.16 in 7.0 mi Calm Calm - N/A   Overcast
2:53 AM 53.1 °F 52.0 °F 96% 30.15 in 10.0 mi Calm Calm - N/A   Overcast
3:53 AM 53.1 °F 52.0 °F 96% 30.16 in 10.0 mi Calm Calm - N/A   Overcast
4:53 AM 53.1 °F 51.1 °F 93% 30.14 in 10.0 mi ESE 4.6 mph - N/A   Overcast
5:53 AM 54.0 °F 51.1 °F 90% 30.14 in 10.0 mi ESE 3.5 mph - N/A   Overcast
6:53 AM 54.0 °F 50.0 °F 86% 30.15 in 10.0 mi SE 5.8 mph - N/A   Overcast
7:53 AM 54.0 °F 48.9 °F 83% 30.15 in 10.0 mi SE 8.1 mph - N/A   Overcast
8:39 AM 55.4 °F 48.2 °F 77% 30.13 in 10.0 mi SE 10.4 mph - N/A   Overcast
9:53 AM 59.0 °F 48.9 °F 69% 30.15 in 10.0 mi SE 9.2 mph - N/A   Mostly Cloudy
10:53 AM 64.0 °F 50.0 °F 60% 30.14 in 10.0 mi SE 10.4 mph - N/A   Partly Cloudy
11:53 AM 66.9 °F 48.9 °F 52% 30.13 in 10.0 mi Variable 3.5 mph - N/A   Overcast
12:41 PM 62.6 °F 51.8 °F 68% 30.12 in 10.0 mi West 11.5 mph - N/A   Mostly Cloudy
12:53 PM 62.1 °F 52.0 °F 70% 30.14 in 10.0 mi West 8.1 mph - N/A   Scattered Clouds
1:53 PM 62.1 °F 52.0 °F 70% 30.12 in 10.0 mi NW 3.5 mph - N/A   Overcast
2:53 PM 59.0 °F 53.1 °F 81% 30.13 in 10.0 mi WNW 5.8 mph - N/A   Overcast
3:53 PM 59.0 °F 53.1 °F 81% 30.12 in 10.0 mi WSW 5.8 mph - N/A   Overcast
4:23 PM 59.0 °F 53.6 °F 82% 30.11 in 10.0 mi Variable 3.5 mph - N/A   Overcast
4:53 PM 59.0 °F 54.0 °F 83% 30.12 in 10.0 mi Calm Calm - N/A   Overcast
5:51 PM 59.0 °F 53.6 °F 82% 30.10 in 10.0 mi Calm Calm - N/A   Overcast
5:53 PM 60.1 °F 54.0 °F 80% 30.12 in 10.0 mi Calm Calm - N/A   Overcast
6:22 PM 57.2 °F 53.6 °F 88% 30.11 in 10.0 mi Calm Calm - N/A   Overcast
6:40 PM 57.2 °F 53.6 °F 88% 30.11 in 10.0 mi Calm Calm - N/A   Overcast
6:53 PM 57.9 °F 53.1 °F 84% 30.12 in 10.0 mi NNE 3.5 mph - N/A   Overcast
7:53 PM 57.9 °F 53.1 °F 84% 30.12 in 10.0 mi South 4.6 mph - N/A   Overcast
8:53 PM 57.9 °F 53.1 °F 84% 30.12 in 10.0 mi SW 4.6 mph - N/A   Overcast
9:53 PM 57.9 °F 53.1 °F 84% 30.12 in 10.0 mi Calm Calm - N/A   Overcast
10:15 PM 57.2 °F 53.6 °F 88% 30.10 in 10.0 mi Calm Calm - N/A   Overcast
10:53 PM 57.0 °F 53.1 °F 87% 30.12 in 10.0 mi Calm Calm - N/A   Overcast
11:53 PM 57.0 °F 53.1 °F 87% 30.12 in 10.0 mi Calm Calm - N/A   Overcast